Regional Weather Roundup
Issued by NWS Newport/Morehead, NC

Current Version | Previous Version | Text Only | Print | Product List | Glossary On
Versions: 1 2 3 4 5 6 7 8 9 10 11 12 13 14 15 16 17 18 19 20 21 22 23 24 25 26 27 28 29 30 31 32 33 34 35 36 37 38 39 40 41 42 43 44 45 46 47 48 49 50
000
ASUS42 KMHX 291625
RWRMHX
WEATHER ROUNDUP FOR EASTERN NORTH CAROLINA
NATIONAL WEATHER SERVICE NEWPORT/MOREHEAD CITY NC
1200 PM EDT SAT AUG 29 2015

NOTE: "FAIR" INDICATES FEW OR NO CLOUDS BELOW 12,000 FEET
WITH NO SIGNIFICANT WEATHER AND/OR OBSTRUCTIONS TO VISIBILITY

NCZ015>017-031-032-045>047-102-103-291700-
NORTH COAST

CITY           SKY/WX    TMP DP  RH WIND       PRES   REMARKS
EDENTON        SUNNY     82  60  47 NE9G18    30.21F
ELIZABETH CITY SUNNY     83  60  45 NE13      30.21F
KITTY HAWK     SUNNY     82  66  59 NE9G16    30.19F
MANTEO         MOSUNNY   79  68  68 NE14G20   30.20F

$$

NCZ045>047-081-094-103-104-291700-
CENTRAL COAST

CITY           SKY/WX    TMP DP  RH WIND       PRES   REMARKS
FRISCO         CLOUDY    80  72  76 NE13G21   30.16F
SWANQUARTER    NOT AVBL

$$

NCZ095-097-098-100-101-291700-
SOUTHERN COAST

CITY           SKY/WX    TMP DP  RH WIND       PRES   REMARKS
BEAUFORT       MOSUNNY   82  72  71 NE14G21   30.16F
CEDAR ISLAND   NOT AVBL
JACKSONVILLE   PTSUNNY   82  64  54 N13       30.18S
PINEY ISLAND   CLOUDY   N/A N/A N/A N15G22    30.17F
WILMINGTON     MOSUNNY   84  68  58 N12       30.18F HAZE


$$

NCZ011>013-027>030-043-044-078>080-089-090>093-098-291700-
COASTAL PLAIN

CITY           SKY/WX    TMP DP  RH WIND       PRES   REMARKS
AHOSKIE        SUNNY     81  60  48 NE3       30.22F
CLINTON        PTSUNNY   81  63  55 CALM      30.22F
ELIZABETHTOWN  CLOUDY    79  63  56 CALM      30.21F
GOLDSBORO      PTSUNNY   82  60  47 NE8       30.21S
GREENVILLE     MOSUNNY   82  61  47 NE8       30.22S
HAVELOCK       MOSUNNY   84  69  60 NE16      30.18F
KENANSVILLE      N/A     80  60  49 N9        30.23S
KINSTON        PTSUNNY   82  57  42 NE14      30.22S
NEW BERN       PTSUNNY   82  64  54 NE10      30.20F
RICHLANDS      PTSUNNY   82  61  47 N9        30.19F
ROCKY MOUNT    MOSUNNY   86  56  35 N10       30.23S
WASHINGTON     MOSUNNY   81  62  50 NE8       30.20F
WHITEVILLE     CLOUDY    79  64  60 N6        30.20F

$$

AMZ130-135-150-152-154-156-158-170-250-252-270-ANZ085-086-088-633-658-670-291700-
MARINE OBSERVATIONS

STATION/POSITION TIME  TEMP    WIND        PRES    WAVE   SWELL
                       AIR SEA DIR/SP/G            HT/PER HT/PER
                 (UTC) (F)     (DEG/KT/KT) (MB)    (FT/S) (FT/S)
CHESAPEAKE LIGHT 1600   76      60/ 11/ 12 1024.1
64 E VA BEACH    1550   77 78   40/ 12/ 14 1022.7    4/11   3/11
DUCK             NOT AVBL
2 E DUCK         1511      78                N/A     4/10   2/12
OREGON INLET     NOT AVBL
13E OREGON INLT  1600      78                N/A     5/11   2/11
HATTERAS CG      NOT AVBL
DIAMOND BUOY     1550   79 83   30/ 16/ 19 1020.7    5/10   3/10
CAPE LOOKOUT     1600   80      30/ 18/ 21 1021.0
BEAUFORT LAB     NOT AVBL
30 SE NEW RVR IN 1508   80 81   40/ 17/ 21 1021.7
30 SE NEW RVR IN 1525      81                N/A     5/11   2/11
27 SE WRIGHTSVLE 1600   76 82   40/ 16/ 17   N/A
5 SE WRIGHTSVLE  1508   78 82   30/ 12/ 17 1021.9
225 S CAPE HAT   1550   83 83  200/ 12/ 14 1021.2    4/11   3/11
41 SE CHARLESTON 1550   81 85   40/ 14/ 17 1020.6    5/ 6   3/11

$$



USA.gov is the U.S. government's official web portal to all federal, state and local government web resources and services.